{"data":{"norad_id":66458,"intl_designator":"2025-262C","name":"STARLINK-35684","alt_names":[],"object_type":"PAYLOAD","status":"ACTIVE","operator":null,"country":"US","launch_date":"2025-11-15","launch_site_code":"AFETR","launch_vehicle":null,"mission":null,"orbit_class":"UNKNOWN","rcs_meters":null,"size_class":null,"mass_kg":null,"dimensions":null,"purposes":["comms"],"wikipedia_slug":null,"has_3d_model":false,"image_url":null,"decayed_at":null,"tle_current":{"epoch":"2026-09-20T08:16:31.621152Z","epoch_age_seconds":102730,"freshness":"FRESH","line1":"1 66458U 25262C   26263.34481043  .00001317  00000+0  57396-4 0  9997","line2":"2 66458  42.9990 277.1013 0001246 268.7778  91.2930 15.27571946 48679","mean_motion":15.27571946,"eccentricity":0.0001246,"inclination_deg":42.999,"raan_deg":277.1013,"arg_perigee_deg":268.7778,"mean_anomaly_deg":91.293,"bstar":5.7396e-5,"rev_number":4867,"period_min":94.267245727489,"perigee_km":482.21830592652,"apogee_km":483.92811951153,"semimajor_km":6861.210212719,"source":"CELESTRAK","updated_at":"2026-09-21T09:00:35.912710Z"}}}